Wind_Speed
89 89 81 79 72 73 71 67 66 64 64 64 66 64 65 59 59 55 55 55 55 52 50 53 53 55 59 59 59 62 63 61 57 58 58 59 59 60 62 61 60 60 61 63
89 87 87 82 74 74 73 71 70 68 67 69 65 66 68 68 62 63 62 59 59 61 58 57 58 59 62 64 65 65 65 65 64 64 63 64 64 65 65 65 64 63 65 68
89 88 89 87 79 78 77 77 75 70 71 71 71 72 73 72 71 67 64 63 64 64 67 67 65 64 64 65 65 66 67 68 68 68 68 68 67 64 67 69 69 71 72 71
85 83 87 83 81 81 80 79 78 70 71 74 76 73 74 72 72 71 71 69 66 68 68 69 68 68 70 68 69 70 72 73 72 69 68 69 69 70 72 73 73 73 77 78
88 79 83 81 82 83 83 82 79 77 76 80 78 79 78 78 78 78 78 76 73 73 69 68 70 72 75 74 76 78 79 77 76 75 78 76 74 76 76 78 75 79 83 88
82 83 81 83 84 84 81 80 80 78 76 79 82 84 83 82 81 81 80 80 80 79 79 77 77 79 81 81 82 81 81 79 79 79 82 83 84 85 84 85 84 89 92 90
89 85 81 84 83 82 81 85 82 80 84 85 85 84 84 82 81 81 81 84 84 82 83 83 81 80 83 82 85 84 84 83 83 85 87 85 86 87 89 86 90 89 90 91
91 89 86 82 84 79 77 83 85 86 85 86 87 85 84 84 84 85 87 88 87 86 82 78 76 75 79 82 85 85 86 86 86 89 92 93 93 95 97 96 98 99 100 102
94 92 91 89 87 86 82 83 85 88 91 89 91 90 89 90 90 90 91 89 88 86 84 84 84 86 89 89 90 92 95 96 97 99 100 101 102 105 105 106 108 108 107 109
90 89 93 87 87 85 85 85 84 83 87 90 91 92 91 89 91 92 89 89 90 89 91 94 94 94 95 95 96 99 100 101 104 104 104 106 107 108 108 113 114 111 117 114
92 94 93 89 87 89 88 89 88 88 87 90 94 89 93 96 96 97 98 99 99 99 100 101 101 103 106 105 105 106 108 110 112 113 113 114 113 110 116 115 119 121 123 122
92 93 95 96 91 90 91 89 89 92 94 93 94 99 99 96 96 99 101 101 101 104 108 111 112 113 113 112 113 115 118 117 116 118 123 121 124 125 125 126 128 129 130 133
99 96 97 97 95 94 90 93 95 100 102 103 102 105 104 104 103 104 105 105 106 109 112 113 114 116 116 119 120 119 120 124 126 126 127 125 126 128 133 135 136 138 137 136
99 97 98 94 95 93 91 94 96 96 96 96 102 102 103 105 106 106 108 113 116 115 117 116 120 121 125 127 126 129 128 129 129 128 131 134 135 141 142 142 142 141 141 138
92 95 99 97 94 98 99 99 99 101 104 103 103 108 109 111 112 114 118 121 121 122 124 127 127 127 126 131 129 126 129 134 138 138 141 143 144 145 143 143 144 140 138 135
102 101 101 100 102 102 105 105 105 105 106 107 108 112 110 111 112 114 115 116 120 122 126 123 124 126 130 133 133 137 139 142 144 147 145 150 148 147 146 142 139 133 130 125
99 103 108 109 111 109 108 112 112 110 108 110 111 113 115 117 118 120 119 121 122 125 129 133 134 138 137 139 144 145 145 146 146 152 144 141 148 137 130 125 125 126 123 122
85 94 104 107 111 116 118 115 112 113 111 112 112 116 115 118 121 118 126 130 133 135 137 138 141 144 142 143 142 144 151 155 150 136 136 126 128 125 125 127 128 128 128 127
59 75 82 91 100 103 111 116 117 117 120 122 124 124 122 121 125 127 130 134 140 140 142 144 145 147 150 151 151 151 154 142 130 122 128 123 121 120 116 112 109 111 112 114
43 47 53 60 70 79 86 95 103 110 110 121 117 123 129 131 134 133 134 139 143 144 145 147 149 154 158 153 145 121 125 125 111 118 114 107 102 103 101 103 106 107 106 103
47 48 46 50 59 59 65 74 81 86 85 82 98 108 113 119 126 133 135 135 137 145 143 125 125 122 128 125 127 116 121 117 109 105 102 102 101 98 99 98 100 103 103 105
53 49 50 51 50 53 64 66 68 72 76 81 84 91 96 94 100 103 103 107 118 126 116 125 131 119 117 119 122 113 110 108 102 102 102 99 96 94 94 96 99 103 108 110
54 55 52 51 51 58 61 66 69 73 77 77 80 84 85 91 97 102 103 105 108 108 116 119 119 114 109 107 105 102 101 99 96 95 95 94 92 93 97 100 103 107 113 115
59 61 59 57 56 63 64 65 67 69 72 72 75 77 79 84 88 91 89 88 97 104 107 109 107 104 102 102 102 102 95 86 89 90 92 94 97 99 103 106 108 110 112 111
65 70 67 64 67 72 68 65 65 66 68 72 73 72 75 79 85 87 83 87 92 95 98 100 103 102 102 100 101 101 91 85 88 88 91 97 102 104 104 103 103 102 99 95
68 73 74 73 74 75 73 70 68 69 71 70 71 73 76 79 79 78 81 86 91 93 96 99 101 99 101 102 102 102 97 97 92 92 96 100 104 98 92 90 88 86 78 72
Wind_Direction
209 211 211 211 212 222 225 224 228 229 233 236 239 241 243 242 238 239 240 242 243 247 253 255 256 258 260 265 270 273 277 278 279 278 278 282 286 289 291 292 295 295 296 296
207 211 214 214 219 225 227 229 232 233 235 237 237 241 243 244 244 244 245 248 250 251 256 258 260 264 266 268 271 275 276 278 280 281 283 285 286 287 288 291 294 295 294 292
210 214 216 220 223 226 228 230 234 237 236 240 241 240 244 248 251 250 249 252 255 260 257 259 263 268 270 271 273 275 278 280 281 282 283 283 284 287 288 289 291 293 295 294
212 216 219 221 224 228 230 233 237 230 233 238 244 247 248 249 252 255 256 259 262 263 261 261 267 272 274 275 276 277 280 280 280 282 284 284 285 286 287 288 292 292 292 293
212 216 217 221 222 227 232 234 235 238 239 240 242 246 249 251 255 259 262 262 265 267 267 271 268 269 271 273 275 278 282 282 284 285 288 288 286 287 287 289 293 293 294 296
215 217 223 224 227 227 231 235 236 232 234 242 242 246 251 254 257 260 263 265 267 269 269 271 272 273 276 276 279 282 284 285 286 286 287 288 289 290 292 292 294 295 295 294
214 222 226 228 230 233 234 235 234 239 242 243 245 249 251 254 257 259 261 265 267 268 270 272 274 274 275 279 281 283 283 283 283 284 286 286 288 291 292 294 293 292 291 292
215 221 222 223 227 230 236 236 238 241 240 242 246 249 250 252 255 257 260 263 265 268 268 271 273 274 276 278 277 278 278 277 277 281 282 284 285 284 284 285 285 288 290 290
217 220 219 223 228 232 235 238 241 242 245 247 249 249 252 256 258 258 260 262 265 266 266 268 269 269 270 272 274 276 277 279 280 281 282 283 284 284 284 284 285 285 287 290
217 219 221 225 227 228 231 233 237 241 246 248 250 253 254 255 258 260 259 261 263 266 268 269 269 271 272 274 276 277 278 279 279 281 281 282 282 285 286 287 288 289 290 289
219 222 224 227 228 229 233 236 238 242 245 246 250 254 255 257 258 260 262 263 265 265 266 267 269 271 272 273 274 275 277 278 277 279 281 283 286 287 290 292 290 288 292 292
222 226 228 229 230 233 235 238 240 242 244 247 249 250 252 255 259 261 261 262 264 264 267 268 270 271 271 272 273 275 277 281 282 284 284 284 285 287 289 292 292 292 292 294
224 227 231 233 235 235 235 240 243 246 248 251 252 253 255 258 262 263 264 264 265 267 267 268 269 270 272 275 277 279 279 281 284 285 285 285 286 289 292 292 292 292 291 291
232 232 234 236 237 238 241 244 245 246 248 251 253 256 258 259 260 261 263 264 265 265 267 268 270 271 275 278 279 282 283 284 284 284 285 288 287 289 292 292 292 290 288 288
238 240 241 239 240 242 244 246 247 248 249 251 253 255 257 259 261 263 265 266 267 270 270 272 274 276 279 280 280 280 283 286 286 287 288 289 290 290 289 290 289 287 287 287
235 236 239 241 243 245 245 246 247 249 250 252 255 256 259 260 263 265 266 267 269 271 273 273 274 276 278 280 282 284 286 287 287 288 289 291 292 290 290 291 290 288 288 286
234 236 238 240 240 243 246 245 246 249 251 253 255 257 259 260 261 263 264 265 266 267 269 272 274 277 279 281 283 285 286 287 287 290 293 292 291 292 290 291 289 287 288 288
234 236 238 240 243 244 245 248 250 250 252 255 258 260 261 263 264 266 268 269 270 272 274 275 277 280 282 283 283 283 285 288 287 289 291 290 290 291 288 288 288 288 287 287
232 236 237 240 241 244 248 249 251 254 255 256 258 259 260 261 263 265 268 270 271 273 276 278 279 279 280 283 285 286 285 291 290 288 289 289 286 286 288 288 287 286 286 285
243 243 239 238 241 243 248 249 250 253 255 257 258 260 262 263 265 268 270 271 272 274 276 279 281 281 281 284 287 286 290 290 291 290 290 290 290 289 289 289 287 286 286 286
250 249 250 250 246 246 251 251 251 253 252 259 261 262 263 264 265 267 270 274 276 274 275 281 282 283 284 287 288 288 290 291 293 294 294 294 294 291 288 287 286 286 286 285
257 255 255 252 254 250 256 257 257 256 254 256 261 264 266 269 270 270 272 274 278 280 278 282 285 289 287 288 289 290 292 293 294 295 295 293 292 290 290 289 288 286 286 286
269 262 259 259 262 261 263 263 261 259 258 258 262 264 267 271 272 274 276 276 277 281 283 285 286 289 291 291 292 292 292 295 296 296 294 292 292 292 291 291 290 289 289 289
269 272 272 271 273 269 267 265 266 270 271 269 270 270 273 275 276 277 280 284 283 283 283 285 288 291 295 295 296 295 295 298 299 297 294 292 292 294 294 293 291 289 288 288
264 272 276 275 278 277 275 273 274 276 279 279 279 281 282 282 281 280 283 285 286 287 289 291 292 295 296 297 298 299 302 305 304 300 296 296 297 296 296 294 291 290 290 290
266 268 272 274 276 278 279 281 282 282 283 284 285 284 281 284 287 286 285 287 289 290 291 292 294 298 300 300 299 301 308 309 306 302 301 300 298 298 296 293 291 292 289 287
Height
10680 10690 10700 10707 10713 10720 10725 10730 10736 10740 10743 10748 10751 10750 10754 10758 10761 10767 10770 10772 10775 10780 10783 10784 10784 10783 10783 10785 10786 10787 10786 10786 10784 10782 10781 10779 10778 10776 10775 10773 10770 10767 10761 10758
10675 10685 10693 10699 10707 10712 10717 10723 10727 10732 10735 10740 10740 10740 10746 10749 10754 10758 10761 10766 10769 10772 10775 10774 10774 10775 10775 10776 10777 10777 10776 10775 10774 10773 10771 10769 10766 10764 10762 10759 10757 10754 10750 10747
10671 10679 10686 10693 10699 10704 10709 10715 10720 10725 10728 10728 10727 10733 10737 10741 10745 10749 10754 10757 10760 10762 10764 10765 10765 10766 10768 10768 10768 10767 10766 10764 10761 10760 10757 10755 10753 10748 10746 10743 10741 10738 10735 10732
10665 10668 10676 10682 10690 10696 10701 10708 10713 10716 10718 10719 10719 10722 10727 10731 10736 10739 10743 10747 10748 10749 10751 10754 10755 10757 10757 10755 10755 10754 10752 10750 10748 10744 10742 10741 10737 10733 10730 10727 10723 10720 10717 10713
10657 10660 10669 10675 10682 10687 10692 10699 10703 10706 10708 10710 10709 10712 10717 10722 10726 10729 10731 10733 10736 10737 10739 10741 10743 10742 10741 10740 10738 10738 10737 10735 10732 10728 10726 10724 10720 10718 10714 10709 10704 10703 10700 10697
10651 10658 10664 10669 10673 10679 10684 10688 10692 10695 10696 10696 10699 10704 10708 10713 10715 10718 10719 10721 10722 10723 10725 10727 10727 10727 10727 10727 10725 10723 10721 10718 10714 10711 10708 10706 10703 10701 10697 10694 10691 10689 10686 10682
10645 10651 10656 10660 10666 10669 10675 10678 10681 10684 10685 10685 10689 10695 10697 10701 10704 10706 10707 10706 10706 10708 10710 10713 10716 10715 10713 10712 10709 10706 10703 10701 10698 10694 10691 10689 10686 10683 10680 10675 10674 10670 10667 10663
10633 10639 10642 10646 10652 10656 10661 10666 10671 10674 10674 10674 10677 10684 10685 10689 10692 10692 10692 10690 10691 10694 10701 10701 10700 10700 10698 10695 10691 10688 10686 10684 10681 10679 10676 10672 10669 10667 10663 10660 10657 10653 10650 10645
10620 10626 10629 10634 10639 10646 10650 10653 10657 10660 10662 10661 10666 10672 10675 10673 10675 10675 10675 10677 10679 10683 10686 10685 10684 10681 10677 10675 10672 10669 10667 10664 10662 10661 10657 10654 10651 10648 10645 10642 10637 10633 10628 10624
10604 10610 10614 10619 10625 10629 10634 10640 10643 10645 10648 10649 10653 10657 10659 10657 10659 10659 10661 10664 10668 10670 10669 10665 10659 10658 10657 10656 10653 10650 10646 10644 10641 10640 10638 10635 10632 10628 10625 10621 10616 10611 10606 10600
10593 10596 10601 10607 10610 10615 10619 10623 10628 10633 10637 10638 10638 10643 10643 10644 10645 10647 10650 10650 10651 10648 10642 10641 10639 10637 10636 10634 10631 10629 10627 10625 10623 10621 10617 10614 10609 10604 10601 10595 10588 10584 10579 10569
10579 10584 10589 10594 10600 10603 10607 10611 10615 10616 10621 10623 10625 10628 10628 10629 10632 10634 10632 10629 10629 10627 10622 10619 10617 10614 10611 10610 10609 10608 10606 10604 10602 10599 10596 10590 10585 10581 10573 10565 10559 10551 10542 10535
10566 10572 10577 10584 10590 10593 10598 10600 10602 10604 10607 10609 10613 10609 10611 10615 10617 10612 10610 10607 10604 10601 10599 10596 10592 10591 10589 10588 10587 10585 10582 10580 10578 10572 10566 10558 10551 10546 10541 10533 10525 10516 10509 10503
10561 10566 10571 10578 10583 10585 10586 10588 10591 10593 10597 10595 10591 10593 10593 10592 10592 10590 10587 10582 10580 10577 10575 10573 10571 10570 10569 10566 10563 10560 10559 10555 10548 10541 10536 10528 10520 10514 10507 10499 10491 10483 10473 10465
10544 10551 10559 10565 10570 10570 10571 10576 10579 10580 10579 10576 10574 10569 10576 10569 10570 10567 10565 10562 10560 10557 10555 10553 10552 10549 10544 10540 10534 10531 10530 10525 10518 10512 10504 10496 10489 10481 10473 10464 10454 10447 10439 10432
10529 10534 10541 10546 10548 10551 10555 10559 10560 10561 10563 10561 10557 10551 10551 10555 10552 10546 10543 10542 10538 10534 10532 10530 10527 10524 10517 10509 10505 10503 10499 10491 10483 10479 10470 10461 10451 10442 10432 10422 10414 10405 10400 10393
10512 10516 10523 10529 10531 10532 10537 10540 10542 10543 10541 10538 10536 10534 10533 10531 10528 10525 10523 10518 10516 10510 10507 10505 10501 10496 10490 10484 10481 10478 10470 10461 10452 10445 10435 10425 10417 10407 10397 10388 10381 10372 10365 10359
10493 10498 10505 10509 10512 10518 10515 10521 10521 10523 10522 10522 10517 10513 10514 10511 10505 10499 10499 10496 10492 10488 10484 10482 10480 10473 10465 10459 10456 10452 10440 10432 10423 10416 10403 10390 10381 10374 10366 10358 10347 10337 10329 10326
10479 10483 10486 10491 10493 10496 10498 10499 10502 10504 10502 10499 10495 10489 10490 10488 10481 10479 10477 10474 10471 10466 10462 10458 10455 10447 10438 10432 10428 10420 10412 10401 10392 10384 10378 10364 10352 10346 10336 10326 10314 10303 10294 10288
10466 10466 10469 10474 10474 10479 10472 10478 10478 10480 10485 10473 10473 10468 10465 10462 10460 10458 10456 10449 10445 10445 10441 10437 10427 10420 10410 10403 10400 10387 10380 10372 10362 10358 10344 10334 10323 10314 10304 10293 10282 10272 10262 10256
10450 10452 10457 10456 10460 10466 10457 10454 10458 10462 10459 10453 10450 10449 10443 10439 10436 10433 10434 10431 10427 10418 10412 10408 10399 10390 10381 10373 10372 10357 10349 10341 10333 10324 10313 10303 10293 10284 10272 10265 10254 10243 10234 10228
10436 10437 10440 10441 10446 10453 10435 10440 10438 10438 10444 10440 10436 10428 10426 10424 10417 10417 10413 10406 10399 10390 10382 10379 10373 10363 10354 10347 10339 10331 10320 10316 10310 10299 10285 10273 10264 10254 10245 10237 10225 10215 10203 10195
10421 10421 10425 10429 10433 10428 10427 10422 10423 10422 10422 10422 10419 10412 10410 10405 10399 10397 10392 10385 10376 10366 10361 10355 10349 10342 10331 10318 10308 10304 10295 10293 10288 10273 10257 10247 10239 10229 10217 10209 10196 10184 10169 10160
10407 10408 10411 10412 10415 10408 10405 10408 10406 10404 10404 10404 10399 10397 10393 10386 10383 10376 10371 10364 10357 10349 10341 10332 10326 10321 10311 10295 10288 10276 10272 10273 10262 10248 10233 10223 10215 10205 10189 10176 10162 10149 10137 10128
10393 10392 10397 10399 10395 10383 10389 10391 10389 10388 10385 10382 10380 10380 10374 10370 10361 10358 10355 10346 10338 10329 10319 10311 10304 10299 10288 10277 10268 10251 10247 10244 10234 10223 10210 10196 10182 10170 10157 10138 10123 10114 10104 10100
10383 10377 10375 10381 10371 10370 10371 10371 10370 10367 10364 10363 10362 10358 10353 10349 10345 10341 10335 10328 10317 10308 10299 10293 10284 10275 10263 10252 10242 10226 10221 10213 10204 10196 10181 10166 10151 10140 10124 10110 10100 10086 10081 10074